sat.trackr.live / text

‹ back to catalog

PUNCH-WFI 2 (SMEX 15C)

NORAD 63181 · 2025-047D

PAYLOAD ACTIVE UNKNOWN

§ Identity

Operator
Country
US
Launch date
2025-03-12
Launch site
AFWTR
Launch vehicle
Mass (kg)
RCS (m²)

External: N2YO · Heavens-Above · Gunter

§ Orbital elements

Epoch: 2026-09-22T18:13:42.685248Z

Period
97.66 min
Inclination
97.9587°
Eccentricity
0.0008345
Mean motion
14.74435373 rev/d
Perigee alt
641.1 km
Apogee alt
652.8 km
Semi-major
7,025.1 km
B*
5.7387e-5
RAAN
89.1225°
Arg perigee
223.2094°
Mean anomaly
136.8461°
Rev number
8,243

§ Raw data

PUNCH-WFI 2 (SMEX 15C)1 63181U 25047D   26265.75952182  .00000331  00000+0  57387-4 0  99972 63181  97.9587  89.1225 0008345 223.2094 136.8461 14.74435373 82432

JSON: /api/v1/satellites/63181 · /tle

For live sub-satellite position, see the globe view (requires WebGL).

§ Visibility from observer

Set your observer location to see the next 7 days of passes ≥ 10°. The values pass through the URL so the page stays shareable.

No JS? Fill the form by hand. The geolocation button needs JavaScript.